Home   Weather   Fairfield   Past weeks
Flag for USA

Past Weather in Fairfield, Ohio, USA — Yesterday and Last 2 Weeks

Now
56 °F

Overcast.


Feels Like: 54 °F
Forecast: 54 / 29 °F
Wind: 9 mph from Southwest

Location: Cincinnati Municipal Airport Lunken Field

Current Time: Dec 8, 2019 at 3:59:39 pm

Latest Report: Dec 8, 2019 at 2:53 pm


Visibility: 10 mi

Pressure: 30.06 "Hg

Humidity: 60%

Dew Point: 42 °F

Location of FairfieldLocation

Past Weather in Fairfield — Graph

°F

Fairfield Temperature Yesterday

Maximum temperature yesterday: 45 °F (at 2:53 pm)
Minimum temperature yesterday: 22 °F (at 3:02 am)
Average temperature yesterday: 29 °F

High & Low Weather Summary for the Past Weeks

 TemperatureHumidityPressure
High59 °F (Nov 25, 2:53 pm)100% (Nov 25, 3:38 am)30.50 "Hg (Nov 25, 3:38 am)
Low22 °F (Dec 7, 3:02 am)41% (Dec 4, 3:53 pm)29.39 "Hg (Dec 1, 3:53 am)
Average39 °F80%29.97 "Hg
* Reported Nov 23 2:36 pm — Dec 8 2:53 pm, Fairfield. Weather by CustomWeather, © 2019

Note: Actual official high and low records may vary slightly from our data, if they occured in-between our weather recording intervals... More about our weather records

Fairfield Weather History for the Previous 24 Hours

Scroll right to see more
 ConditionsComfort  
Time TempWeatherWind HumidityBarometerVisibility
2:53 pm
Sun, Dec 8
56 °FOvercast.9 mph60%30.06 "Hg10 mi
1:53 pm54 °FOvercast.9 mph67%30.08 "Hg10 mi
12:53 pm50 °FOvercast.8 mph68%30.12 "Hg10 mi
11:53 am47 °FOvercast.7 mph74%30.15 "Hg10 mi
10:53 am44 °FOvercast.12 mph79%30.20 "Hg10 mi
9:53 am35 °FScattered clouds.No wind92%30.22 "Hg10 mi
8:53 am27 °FPassing clouds.No wind89%30.22 "Hg10 mi
7:53 am24 °FScattered clouds.No wind91%30.24 "Hg10 mi
6:53 am23 °FClear.No wind92%30.24 "Hg10 mi
5:53 am23 °FClear.No wind96%30.25 "Hg10 mi
4:53 am23 °FClear.No wind96%30.25 "Hg9 mi
3:53 am22 °FClear.No wind92%30.25 "Hg9 mi
2:53 am22 °FClear.No wind89%30.27 "Hg9 mi
1:53 am25 °FIce fog.No wind92%30.29 "Hg5 mi
12:53 am23 °FClear.No wind96%30.32 "Hg9 mi
11:53 pm
Sat, Dec 7
24 °FClear.N/A88%30.34 "Hg8 mi
10:53 pm25 °FClear.No wind92%30.34 "Hg9 mi
9:53 pm28 °FClear.No wind89%30.35 "Hg10 mi
8:53 pm28 °FClear.No wind85%30.37 "Hg10 mi
7:53 pm28 °FClear.No wind89%30.38 "Hg10 mi
6:53 pm30 °FClear.3 mph82%30.37 "Hg10 mi
5:53 pm33 °FClear.3 mph75%30.38 "Hg10 mi
4:53 pm41 °FSunny.8 mph53%30.39 "Hg10 mi
3:53 pm45 °FSunny.3 mph45%30.38 "Hg10 mi
Weather by CustomWeather, © 2019

See weather overview

Advertising